[[{"header":{"parameterUnit":"m.s-1","parameterCategory":1,"la1":30.2991,"la2":30.254,"lo1":-89.0895,"lo2":-89.0444,"dy":0.0017,"dx":0.0017,"nx":28,"ny":28,"refTime":"2025-07-29T03:00:00:Z","depth":0,"parameterNumber":2,"parameterNumberName":"U-component_of_WINDS"},"data":[0,0,0,0,0,0,0,0,0,0,0,0,0,0,0,0,0,0,0,0,0,0,0,0,0,0,0,0,0,0,0,0,0,0,0,0,0,0,0,0,0,0,0,0,0,0,0,0,0,0,0,0,0,0,0,0,0,0,2.1878,2.1878,0,2.1873,2.1873,2.1873,2.1825,2.1823,2.1822,2.1821,2.1816,2.1817,2.1818,0,0,0,0,0,0,0,0,0,0,0,0,0,2.1848,2.1849,2.1878,2.1878,2.1878,2.1873,2.1873,2.1873,2.1825,2.1823,2.1822,2.182,2.1816,2.1817,2.1818,0,0,0,0,0,0,0,0,0,0,0,0,0,2.1854,2.1849,2.1878,2.1854,2.1851,2.1873,2.1873,2.1873,2.1825,2.1823,2.1821,2.182,2.1815,2.1817,2.1818,2.1864,0,0,2.1823,2.1823,0,0,0,0,0,0,0,0,2.1853,2.1855,2.1857,2.1855,2.1853,2.1848,2.186,2.187,2.1826,2.1835,2.1821,2.1819,2.1828,2.1828,2.1831,2.1863,2.1863,2.1823,2.1824,2.1824,2.1825,0,0,0,0,0,0,0,2.1853,2.1855,2.1876,2.1857,2.1855,2.1843,2.1842,2.1862,2.1842,2.1834,2.1831,2.1831,2.1826,2.183,2.1831,2.1863,2.1823,2.1824,2.1825,2.1826,2.1934,2.1936,0,0,0,0,0,0,2.1856,2.1855,2.1876,2.1876,2.1849,2.1845,2.1844,2.1851,2.1841,2.1838,2.1832,2.1828,2.1828,2.1829,2.1831,2.1884,2.1824,2.1826,2.1827,2.1932,2.1935,2.1937,0,0,0,0,0,0,2.1856,2.1858,2.1877,2.1865,2.1866,2.1848,2.1856,2.1852,2.1855,2.184,2.1836,2.1839,2.1827,2.1828,2.1856,2.1883,2.1827,2.1828,2.193,2.1933,2.1936,2.1992,0,0,0,0,0,0,2.1855,2.1859,2.1875,2.1865,2.1867,2.1902,2.1858,2.1853,2.1858,2.1853,2.1846,2.1843,2.1826,2.1854,2.1858,2.1884,2.1829,2.1927,2.1931,2.1935,2.1987,2.1996,2.2004,0,0,0,0,0,2.1854,2.1891,2.1876,2.1879,2.1887,2.1904,2.1905,2.1884,2.1861,2.1878,2.1868,2.1843,2.188,2.1857,2.1861,2.1889,2.1925,2.193,2.1934,2.1984,2.1994,2.2003,0,0,0,0,0,0,2.1904,2.1889,2.1873,2.1907,2.1907,2.1896,2.1916,2.1896,2.1902,2.1898,2.1872,2.1871,2.1903,2.1898,2.1874,2.1933,2.1898,2.1904,2.1935,2.1945,2.1953,2.1954,2.183,0,0,0,0,0,2.1919,2.1934,2.192,2.1952,2.1953,2.1935,2.1941,2.1925,2.1924,2.1924,2.1916,2.1916,2.1928,2.1936,2.1946,2.1986,2.1985,2.2007,2.2015,2.2022,2.2027,2.205,2.206,2.1951,2.1951,2.1951,0,0,2.1951,2.1944,2.1955,2.1962,2.196,2.1976,2.1935,2.1953,2.1965,2.1927,2.1953,2.1947,2.1946,2.1981,2.1995,2.1978,2.2057,2.2028,2.2033,2.2035,2.2056,2.2066,2.2075,2.1954,2.1954,2.1953,0,0,2.2016,2.2012,2.2039,2.2038,2.2036,2.2024,2.2031,2.2023,2.2018,2.2043,2.2015,2.2029,2.2049,2.205,2.2053,2.2121,2.2099,2.2124,2.2168,2.219,2.2199,2.2206,2.2231,2.2241,2.2129,2.213,2.213,0,2.2055,2.2078,2.2056,2.2076,2.2081,2.2047,2.2075,2.2075,2.2076,2.2081,2.2061,2.2087,2.2083,2.2118,2.2135,2.2138,2.2146,2.2125,2.2199,2.2206,2.2213,2.2237,2.2246,2.2133,2.2132,2.2132,2.2132,0,2.2127,2.2144,2.2166,2.2168,2.2175,2.2199,2.2181,2.2191,2.2175,2.2166,2.2193,2.2188,2.2197,2.2204,2.2188,2.2237,2.2227,2.2204,2.2168,2.2227,2.2249,2.2258,2.2137,2.2136,2.2135,2.2135,0,0,2.2223,2.2214,2.2223,2.2224,2.222,2.2233,2.2256,2.2265,2.2274,2.2277,2.2296,2.2315,2.2294,2.2297,2.2281,2.2301,2.2357,2.2275,2.2275,2.2292,2.2412,2.2431,2.2441,2.2342,2.2344,2.2345,2.2413,0,2.2287,2.2326,2.2307,2.2349,2.2365,2.2334,2.2354,2.2354,2.2346,2.2359,2.235,2.2364,2.2334,2.2337,2.2355,2.2346,2.2381,2.2341,2.2361,2.2362,2.2363,2.2453,2.2472,2.2536,2.2421,2.2423,2.2424,0,2.2367,2.2373,2.2417,2.2411,2.2417,2.2436,2.2443,2.2455,2.2455,2.2448,2.2453,2.2433,2.2456,2.2422,2.2454,2.2427,2.2434,2.2432,2.2434,2.2435,2.2397,2.2458,2.2556,2.2566,2.2437,2.2436,2.2435,0,2.2434,2.2454,2.2483,2.2485,2.2478,2.2493,2.2491,2.2489,2.2496,2.2503,2.2507,2.2516,2.2522,2.253,2.2513,2.2489,2.2548,2.2512,2.2544,2.2545,2.2558,2.2558,2.266,2.2562,2.2561,2.2561,2.2561,0,2.2508,2.2536,2.2513,2.2531,2.2562,2.254,2.2571,2.2566,2.2565,2.2582,2.2555,2.2572,2.2549,2.2563,2.2551,2.258,2.2582,2.2578,2.2574,2.2581,2.2582,2.2586,2.2581,2.2564,2.2563,2.2563,2.2562,0,2.2589,2.2574,2.2604,2.2596,2.2595,2.2618,2.2612,2.2628,2.2619,2.2641,2.2645,2.263,2.2646,2.263,2.2645,2.2636,2.2676,2.2666,2.2677,2.2674,2.2708,2.2705,2.2817,2.2831,2.2722,2.2724,2.2724,0,2.2637,2.2658,2.2653,2.2663,2.2663,2.2678,2.2685,2.2665,2.2674,2.2677,2.2693,2.2707,2.2717,2.2744,2.2735,2.2746,2.2737,2.2775,2.2738,2.2745,2.2739,2.2738,2.2741,2.2783,2.2784,2.2785,2.2786,0,2.2725,2.2717,2.2729,2.2739,2.2749,2.2755,2.276,2.2769,2.2749,2.276,2.2776,2.2784,2.28,2.2814,2.2823,2.2821,2.2801,2.2797,2.2806,2.2813,2.2819,2.2817,2.2698,2.2795,2.2794,2.2793,2.2793,2.2792,2.2792,2.281,2.2809,2.2824,2.2825,2.2831,2.2847,2.284,2.2853,2.2864,2.2851,2.2871,2.2872,2.2882,2.2883,2.2899,2.2883,2.2895,2.2898,2.2902,2.2907,2.2816,2.2901,2.29,2.29,2.29,2.29,0,2.288,2.2878,2.2892,2.29,2.2911,2.2891,2.2895,2.2907,2.2925,2.2927,2.2938,2.2957,2.2971,2.2964,2.2976,2.2991,2.2982,2.2995,2.2994,2.2994,2.292,2.2912,2.3002,2.3002,2.3002,2.3002,2.3002,2.3002,2.2927,2.2956,2.2949,2.298,2.2978,2.2998,2.3002,2.3007,2.3009,2.3032,2.3044,2.3039,2.3038,2.3051,2.3063,2.3061,2.3067,2.3084,2.3078,2.3009,2.2999,2.299,2.2982,2.3085,2.3085,2.3151,2.3152,2.3152]},{"header":{"parameterUnit":"m.s-1","parameterCategory":1,"la1":30.2991,"la2":30.254,"lo1":-89.0895,"lo2":-89.0444,"dy":0.0017,"dx":0.0017,"nx":28,"ny":28,"refTime":"2025-07-29T03:00:00:Z","depth":0,"parameterNumber":3,"parameterNumberName":"V-component_of_WINDS"},"data":[0,0,0,0,0,0,0,0,0,0,0,0,0,0,0,0,0,0,0,0,0,0,0,0,0,0,0,0,0,0,0,0,0,0,0,0,0,0,0,0,0,0,0,0,0,0,0,0,0,0,0,0,0,0,0,0,0,0,-1.2604,-1.2604,0,-1.2662,-1.2663,-1.2663,-1.2667,-1.2667,-1.2666,-1.2665,-1.2723,-1.2725,-1.2727,0,0,0,0,0,0,0,0,0,0,0,0,0,-1.2494,-1.2496,-1.2604,-1.2605,-1.2605,-1.2662,-1.2663,-1.2663,-1.2667,-1.2667,-1.2666,-1.2665,-1.2722,-1.2725,-1.2727,0,0,0,0,0,0,0,0,0,0,0,0,0,-1.2546,-1.2497,-1.2604,-1.2614,-1.2616,-1.2662,-1.2663,-1.2664,-1.2668,-1.2667,-1.2666,-1.2665,-1.2721,-1.2724,-1.2727,-1.2766,0,0,-1.2737,-1.2739,0,0,0,0,0,0,0,0,-1.2543,-1.255,-1.2612,-1.2613,-1.2615,-1.2656,-1.2645,-1.2698,-1.2668,-1.2648,-1.2665,-1.2664,-1.2701,-1.2706,-1.2719,-1.2769,-1.2772,-1.2737,-1.2739,-1.2741,-1.2742,0,0,0,0,0,0,0,-1.254,-1.2548,-1.2627,-1.2613,-1.2615,-1.2615,-1.2622,-1.2655,-1.2679,-1.2649,-1.265,-1.2657,-1.2702,-1.2716,-1.272,-1.2772,-1.2737,-1.274,-1.2742,-1.2743,-1.2858,-1.2859,0,0,0,0,0,0,-1.2534,-1.2545,-1.2625,-1.2628,-1.2576,-1.2618,-1.2625,-1.2644,-1.2679,-1.2683,-1.2658,-1.2657,-1.2711,-1.2717,-1.2722,-1.2771,-1.2741,-1.2744,-1.2746,-1.2857,-1.2858,-1.2859,0,0,0,0,0,0,-1.2532,-1.2541,-1.2623,-1.2587,-1.2597,-1.2621,-1.2642,-1.2646,-1.266,-1.2685,-1.2689,-1.2668,-1.271,-1.2718,-1.2756,-1.2773,-1.2745,-1.2748,-1.2855,-1.2857,-1.2859,-1.2868,0,0,0,0,0,0,-1.2529,-1.2541,-1.2556,-1.2587,-1.2599,-1.2655,-1.2643,-1.2648,-1.2665,-1.2665,-1.2695,-1.2699,-1.271,-1.2751,-1.2759,-1.2777,-1.2751,-1.2854,-1.2856,-1.2858,-1.2866,-1.2869,-1.2872,0,0,0,0,0,-1.2525,-1.2556,-1.2557,-1.2566,-1.2619,-1.2656,-1.2663,-1.2676,-1.2667,-1.2682,-1.2699,-1.2699,-1.277,-1.2755,-1.2764,-1.2783,-1.2853,-1.2856,-1.2858,-1.2864,-1.2869,-1.2872,0,0,0,0,0,0,-1.2525,-1.256,-1.2562,-1.2603,-1.2627,-1.2657,-1.2677,-1.268,-1.2706,-1.2704,-1.2718,-1.2724,-1.2762,-1.2776,-1.2759,-1.2823,-1.281,-1.2815,-1.2812,-1.2816,-1.2819,-1.2815,-1.2753,0,0,0,0,0,-1.253,-1.2558,-1.2587,-1.2621,-1.2633,-1.2653,-1.267,-1.2677,-1.2702,-1.2712,-1.2731,-1.2754,-1.2782,-1.28,-1.2827,-1.2868,-1.2875,-1.2885,-1.2889,-1.2891,-1.2895,-1.2918,-1.2923,-1.2868,-1.2868,-1.2868,0,0,-1.254,-1.2563,-1.258,-1.2621,-1.2641,-1.2669,-1.2661,-1.2691,-1.2713,-1.2716,-1.2753,-1.2768,-1.2795,-1.2835,-1.2853,-1.2848,-1.2912,-1.2894,-1.2896,-1.2899,-1.2921,-1.2926,-1.2931,-1.2869,-1.2869,-1.2869,0,0,-1.2574,-1.2594,-1.2624,-1.2644,-1.2674,-1.2687,-1.2694,-1.2724,-1.2735,-1.2772,-1.2776,-1.2801,-1.2848,-1.2868,-1.2884,-1.2925,-1.2926,-1.2933,-1.295,-1.2973,-1.2977,-1.2981,-1.2996,-1.3001,-1.2937,-1.2937,-1.2937,0,-1.2583,-1.2626,-1.264,-1.267,-1.2689,-1.2694,-1.2725,-1.2744,-1.278,-1.2792,-1.2786,-1.2846,-1.2864,-1.2909,-1.2919,-1.2932,-1.2941,-1.293,-1.2975,-1.298,-1.2983,-1.2998,-1.3004,-1.2938,-1.2938,-1.2937,-1.2937,0,-1.2636,-1.2666,-1.2687,-1.2724,-1.2744,-1.2775,-1.2793,-1.2812,-1.2818,-1.2832,-1.287,-1.2893,-1.2924,-1.2935,-1.2941,-1.2981,-1.2977,-1.2973,-1.2961,-1.2989,-1.3003,-1.3009,-1.2939,-1.2938,-1.2938,-1.2938,0,0,-1.2671,-1.2715,-1.2722,-1.2739,-1.2772,-1.2796,-1.2826,-1.2858,-1.2875,-1.29,-1.2926,-1.2966,-1.2963,-1.2981,-1.2989,-1.3009,-1.3041,-1.3002,-1.3003,-1.3009,-1.3086,-1.3089,-1.3096,-1.3041,-1.3042,-1.3043,-1.3084,0,-1.2708,-1.2764,-1.2777,-1.2825,-1.2853,-1.2859,-1.2886,-1.2909,-1.2923,-1.2948,-1.2963,-1.2992,-1.2985,-1.2996,-1.3016,-1.3032,-1.3056,-1.303,-1.3065,-1.3067,-1.3059,-1.3103,-1.3106,-1.3143,-1.309,-1.309,-1.3091,0,-1.2759,-1.2787,-1.2837,-1.2868,-1.288,-1.2904,-1.2935,-1.2959,-1.2985,-1.2994,-1.3015,-1.3021,-1.3053,-1.3039,-1.3083,-1.3065,-1.308,-1.3091,-1.3092,-1.3096,-1.3081,-1.3108,-1.3155,-1.3161,-1.31,-1.3099,-1.3098,0,-1.278,-1.2829,-1.2866,-1.288,-1.2916,-1.2933,-1.2949,-1.2974,-1.2993,-1.3019,-1.3032,-1.3061,-1.3077,-1.31,-1.3113,-1.3102,-1.3157,-1.3144,-1.3165,-1.3164,-1.3176,-1.3175,-1.3227,-1.3185,-1.3185,-1.3185,-1.3185,0,-1.282,-1.2851,-1.2876,-1.2899,-1.2934,-1.2948,-1.2982,-1.2998,-1.3021,-1.3046,-1.3053,-1.3076,-1.3093,-1.3119,-1.313,-1.3165,-1.3172,-1.318,-1.3182,-1.3179,-1.3178,-1.319,-1.3188,-1.3187,-1.3186,-1.3186,-1.3186,0,-1.2849,-1.2867,-1.2908,-1.2939,-1.2948,-1.2972,-1.2999,-1.3021,-1.3035,-1.3067,-1.3076,-1.3098,-1.3129,-1.3145,-1.3183,-1.319,-1.323,-1.3231,-1.3221,-1.3222,-1.3242,-1.324,-1.3303,-1.3312,-1.3264,-1.3265,-1.3265,0,-1.2874,-1.2898,-1.2932,-1.2951,-1.2967,-1.2996,-1.3015,-1.303,-1.305,-1.3082,-1.31,-1.3132,-1.3158,-1.3207,-1.3226,-1.3255,-1.3257,-1.3277,-1.3262,-1.3258,-1.3258,-1.3256,-1.3259,-1.328,-1.328,-1.3281,-1.3281,0,-1.2916,-1.2924,-1.2952,-1.2984,-1.3007,-1.3032,-1.3056,-1.3071,-1.309,-1.3112,-1.3144,-1.3164,-1.3204,-1.3235,-1.3266,-1.3282,-1.3285,-1.3286,-1.3292,-1.329,-1.3283,-1.3287,-1.3229,-1.3284,-1.3284,-1.3284,-1.3284,-1.3283,-1.2944,-1.2966,-1.2994,-1.3025,-1.3046,-1.3069,-1.3091,-1.3109,-1.3136,-1.317,-1.3177,-1.3212,-1.3237,-1.328,-1.3296,-1.3323,-1.3318,-1.3327,-1.333,-1.3332,-1.3333,-1.3279,-1.3328,-1.3328,-1.3328,-1.3328,-1.3328,0,-1.2987,-1.3006,-1.3034,-1.3069,-1.3093,-1.3095,-1.3123,-1.3143,-1.3173,-1.3197,-1.3223,-1.326,-1.3291,-1.3312,-1.3343,-1.336,-1.3362,-1.3368,-1.3367,-1.337,-1.3335,-1.3326,-1.3366,-1.3366,-1.3366,-1.3366,-1.3366,-1.3366,-1.3013,-1.305,-1.3061,-1.3109,-1.3127,-1.3161,-1.3177,-1.3198,-1.3217,-1.3259,-1.3285,-1.3299,-1.3322,-1.3355,-1.3383,-1.3388,-1.3399,-1.3405,-1.3411,-1.3377,-1.3373,-1.3369,-1.3361,-1.3407,-1.3407,-1.3444,-1.3444,-1.3445]}]]